{"data":{"norad_id":39417,"intl_designator":"2013-066B","name":"ZACUBE-1 (TSHEPISOSAT)","alt_names":[],"object_type":"PAYLOAD","status":"ACTIVE","operator":null,"country":"SAFR","launch_date":"2013-11-21","launch_site_code":"DLS","launch_vehicle":null,"mission":null,"orbit_class":"UNKNOWN","rcs_meters":0.069,"size_class":null,"mass_kg":null,"dimensions":null,"purposes":["comms","tech_demo"],"wikipedia_slug":null,"has_3d_model":false,"image_url":null,"decayed_at":null,"tle_current":{"epoch":"2026-05-25T03:26:20.536800Z","epoch_age_seconds":58821,"freshness":"FRESH","line1":"1 39417U 13066B   26145.14329325  .00004071  00000+0  31850-3 0  9998","line2":"2 39417  97.8108 107.3549 0040393 329.4960  30.3915 15.00987824677274","mean_motion":15.00987824,"eccentricity":0.0040393,"inclination_deg":97.8108,"raan_deg":107.3549,"arg_perigee_deg":329.496,"mean_anomaly_deg":30.3915,"bstar":0.0003185,"rev_number":67727,"period_min":95.936820870574,"perigee_km":535.80815621288,"apogee_km":591.88968366571,"semimajor_km":6941.9859199393,"source":"CELESTRAK","updated_at":"2026-05-25T13:38:25.493358Z"}}}